Location: Arrodets-la-Barthe
(43.0306°N, 0.2829°E)
Time: 06:41:39
(UTC+00:00)

CUBEBUG 2 - Pass Details

Date: 07 April 2023
Orbit: 577 x 685 km, 97.8° (Epoch: 03 June)

Event Time Altitude Azimuth Distance (km) Brightness Sun altitude
Rises 03:51:38 0° 356° (N) 3,049 ? -18.0°
Reaches altitude 10° 03:54:38 10° 336° (NNW) 2,114 ? -17.5°
Maximum altitude 03:57:27 16° 298° (WNW) 1,709 ? -17.1°
Enters shadow 03:57:37 16° 295° (WNW) 1,709 ? -17.0°
